Year,Month,Day,Hour,Minute,Value (Times are PST for temperature in C)
2016,08,04,04,04,12.00
2016,08,04,04,05,12.10
2016,08,04,04,06,12.10
2016,08,04,04,07,12.10
2016,08,04,04,08,12.10
2016,08,04,04,09,12.10
2016,08,04,04,10,12.10
2016,08,04,04,11,12.00
2016,08,04,04,12,12.00
2016,08,04,04,13,12.00
2016,08,04,04,14,12.00
2016,08,04,04,15,12.00
2016,08,04,04,16,12.00
2016,08,04,04,17,12.00
2016,08,04,04,18,12.00
2016,08,04,04,19,11.90
2016,08,04,04,20,11.90
2016,08,04,04,21,11.90
2016,08,04,04,22,11.90
2016,08,04,04,23,11.90
2016,08,04,04,24,11.90
2016,08,04,04,25,11.90
2016,08,04,04,26,11.90
2016,08,04,04,27,11.90
2016,08,04,04,28,11.90
2016,08,04,04,29,11.90
2016,08,04,04,30,11.80
2016,08,04,04,31,11.80
2016,08,04,04,32,11.80
2016,08,04,04,33,11.80
2016,08,04,04,34,11.80
2016,08,04,04,35,11.80
2016,08,04,04,36,11.80
2016,08,04,04,37,11.80
2016,08,04,04,38,11.80
2016,08,04,04,39,11.80
2016,08,04,04,40,11.80
2016,08,04,04,41,11.80
2016,08,04,04,42,11.80
2016,08,04,04,43,11.80
2016,08,04,04,44,11.80
2016,08,04,04,45,11.80
2016,08,04,04,46,11.80
2016,08,04,04,47,11.80
2016,08,04,04,48,11.80
2016,08,04,04,49,11.80
2016,08,04,04,50,11.80
2016,08,04,04,51,11.80
2016,08,04,04,52,11.80
2016,08,04,04,53,11.80
2016,08,04,04,54,11.70
2016,08,04,04,55,11.70
2016,08,04,04,56,11.70
2016,08,04,04,57,11.70
2016,08,04,04,58,11.60
2016,08,04,04,59,11.60
2016,08,04,05,00,11.60
2016,08,04,05,01,11.60
2016,08,04,05,02,11.60
2016,08,04,05,03,11.60
2016,08,04,05,04,11.60
2016,08,04,05,05,11.60
2016,08,04,05,06,11.60
2016,08,04,05,07,11.60
2016,08,04,05,08,11.60
2016,08,04,05,09,11.60
2016,08,04,05,10,11.60
2016,08,04,05,11,11.60
2016,08,04,05,12,11.60
2016,08,04,05,13,11.60
2016,08,04,05,14,11.60
2016,08,04,05,15,11.50
2016,08,04,05,16,11.50
2016,08,04,05,17,11.50
2016,08,04,05,18,11.50
2016,08,04,05,19,11.50
2016,08,04,05,20,11.50
2016,08,04,05,21,11.50
2016,08,04,05,22,11.50
2016,08,04,05,23,11.50
2016,08,04,05,24,11.60
2016,08,04,05,25,11.60
2016,08,04,05,26,11.60
2016,08,04,05,27,11.60
2016,08,04,05,28,11.60
2016,08,04,05,29,11.60
2016,08,04,05,30,11.50
2016,08,04,05,31,11.50
2016,08,04,05,32,11.50
2016,08,04,05,33,11.50
2016,08,04,05,34,11.50
2016,08,04,05,35,11.50
2016,08,04,05,36,11.50
2016,08,04,05,37,11.50
2016,08,04,05,38,11.50
2016,08,04,05,39,11.50
2016,08,04,05,40,11.50
2016,08,04,05,41,11.50
2016,08,04,05,42,11.60
2016,08,04,05,43,11.60
2016,08,04,05,44,11.60
2016,08,04,05,45,11.60
2016,08,04,05,46,11.60
2016,08,04,05,47,11.60
2016,08,04,05,48,11.60
2016,08,04,05,49,11.60
2016,08,04,05,50,11.60
2016,08,04,05,51,11.60
2016,08,04,05,52,11.60
2016,08,04,05,53,11.60
2016,08,04,05,54,11.60
2016,08,04,05,55,11.60
2016,08,04,05,56,11.60
2016,08,04,05,57,11.60
2016,08,04,05,58,11.60
2016,08,04,05,59,11.50
2016,08,04,06,00,11.50
2016,08,04,06,01,11.60
2016,08,04,06,02,11.60
2016,08,04,06,03,11.50
2016,08,04,06,04,11.60
2016,08,04,06,05,11.60
2016,08,04,06,06,11.60
2016,08,04,06,07,11.60
2016,08,04,06,08,11.60
2016,08,04,06,09,11.60
2016,08,04,06,10,11.60
2016,08,04,06,11,11.60
2016,08,04,06,12,11.60
2016,08,04,06,13,11.60
2016,08,04,06,14,11.60
2016,08,04,06,15,11.60
2016,08,04,06,16,11.60
2016,08,04,06,17,11.60
2016,08,04,06,18,11.60
2016,08,04,06,19,11.60
2016,08,04,06,20,11.60
2016,08,04,06,21,11.70
2016,08,04,06,22,11.70
2016,08,04,06,23,11.70
2016,08,04,06,24,11.70
2016,08,04,06,25,11.70
2016,08,04,06,26,11.70
2016,08,04,06,27,11.70
2016,08,04,06,28,11.70
2016,08,04,06,29,11.70
2016,08,04,06,30,11.80
2016,08,04,06,31,11.80
2016,08,04,06,32,11.90
2016,08,04,06,33,11.90
2016,08,04,06,34,12.00
2016,08,04,06,35,12.00
2016,08,04,06,36,12.10
2016,08,04,06,37,12.20
2016,08,04,06,38,12.20
2016,08,04,06,39,12.30
2016,08,04,06,40,12.40
2016,08,04,06,41,12.40
2016,08,04,06,42,12.50
2016,08,04,06,43,12.60
2016,08,04,06,44,12.70
2016,08,04,06,45,12.70
2016,08,04,06,46,12.80
2016,08,04,06,47,12.80
2016,08,04,06,48,12.80
2016,08,04,06,49,12.70
2016,08,04,06,50,12.70
2016,08,04,06,51,12.70
2016,08,04,06,52,12.80
2016,08,04,06,53,12.80
2016,08,04,06,54,12.90
2016,08,04,06,55,12.90
2016,08,04,06,56,12.90
2016,08,04,06,57,12.90
2016,08,04,06,58,12.90
2016,08,04,06,59,12.90
2016,08,04,07,00,12.90
2016,08,04,07,01,12.90
2016,08,04,07,02,12.90
2016,08,04,07,03,13.00
2016,08,04,07,04,13.00
2016,08,04,07,05,13.10
2016,08,04,07,06,13.20
2016,08,04,07,07,13.20
2016,08,04,07,08,13.20
2016,08,04,07,09,13.20
2016,08,04,07,10,13.20
2016,08,04,07,11,13.20
2016,08,04,07,12,13.20
2016,08,04,07,13,13.20
2016,08,04,07,14,13.20
2016,08,04,07,15,13.30
2016,08,04,07,16,13.30
2016,08,04,07,17,13.30
2016,08,04,07,18,13.30
2016,08,04,07,19,13.30
2016,08,04,07,20,13.40
2016,08,04,07,21,13.40
2016,08,04,07,22,13.50
2016,08,04,07,23,13.60
2016,08,04,07,24,13.60
2016,08,04,07,25,13.70
2016,08,04,07,26,13.70
2016,08,04,07,27,13.80
2016,08,04,07,28,13.90
2016,08,04,07,29,13.90
2016,08,04,07,30,14.00
2016,08,04,07,31,14.10
2016,08,04,07,32,14.10
2016,08,04,07,33,14.10
2016,08,04,07,34,14.10
2016,08,04,07,35,14.10
2016,08,04,07,36,14.00
2016,08,04,07,37,14.00
2016,08,04,07,38,13.90
2016,08,04,07,39,13.80
2016,08,04,07,40,13.70
2016,08,04,07,41,13.70
2016,08,04,07,42,13.60
2016,08,04,07,43,13.60
2016,08,04,07,44,13.60
2016,08,04,07,45,13.60
2016,08,04,07,46,13.60
2016,08,04,07,47,13.70
2016,08,04,07,48,13.70
2016,08,04,07,49,13.70
2016,08,04,07,50,13.70
2016,08,04,07,51,13.70
2016,08,04,07,52,13.80
2016,08,04,07,53,13.80
2016,08,04,07,54,14.00
2016,08,04,07,55,14.10
2016,08,04,07,56,14.20
2016,08,04,07,57,14.30
2016,08,04,07,58,14.40
2016,08,04,07,59,14.50
2016,08,04,08,00,14.60
2016,08,04,08,01,14.70
2016,08,04,08,02,14.70
2016,08,04,08,03,14.70
2016,08,04,08,04,14.80
2016,08,04,08,05,14.80
2016,08,04,08,06,14.90
2016,08,04,08,07,15.00
2016,08,04,08,08,15.20
2016,08,04,08,09,15.20
2016,08,04,08,10,15.10
2016,08,04,08,11,15.00
2016,08,04,08,12,15.00
2016,08,04,08,13,14.90
2016,08,04,08,14,14.80
2016,08,04,08,15,14.80
2016,08,04,08,16,14.80
2016,08,04,08,17,14.80
2016,08,04,08,18,14.80
2016,08,04,08,19,14.80
2016,08,04,08,20,14.70
2016,08,04,08,21,14.70
2016,08,04,08,22,14.70
2016,08,04,08,23,14.70
2016,08,04,08,24,14.70
2016,08,04,08,25,14.70
2016,08,04,08,26,14.70
2016,08,04,08,27,14.80
2016,08,04,08,28,14.80
2016,08,04,08,29,14.90
2016,08,04,08,30,15.00
2016,08,04,08,31,15.10
2016,08,04,08,32,15.10
2016,08,04,08,33,15.20
2016,08,04,08,34,15.20
2016,08,04,08,35,15.30
2016,08,04,08,36,15.30
2016,08,04,08,37,15.40
2016,08,04,08,38,15.50
2016,08,04,08,39,15.60
2016,08,04,08,40,15.70
2016,08,04,08,41,15.90
2016,08,04,08,42,16.00
2016,08,04,08,43,16.10
2016,08,04,08,44,16.30
2016,08,04,08,45,16.50
2016,08,04,08,46,16.70
2016,08,04,08,47,16.90
2016,08,04,08,48,17.00
2016,08,04,08,49,17.20
2016,08,04,08,50,17.30
2016,08,04,08,51,17.50
2016,08,04,08,52,17.70
2016,08,04,08,53,17.80
2016,08,04,08,54,17.90
2016,08,04,08,55,18.00
2016,08,04,08,56,18.10
2016,08,04,08,57,18.20
2016,08,04,08,58,18.20
2016,08,04,08,59,18.30
2016,08,04,09,00,18.30
2016,08,04,09,01,18.40
2016,08,04,09,02,18.40
2016,08,04,09,03,18.50
2016,08,04,09,04,18.50
2016,08,04,09,05,18.60
2016,08,04,09,06,18.60
2016,08,04,09,07,18.50
2016,08,04,09,08,18.50
2016,08,04,09,09,18.40
2016,08,04,09,10,18.40
2016,08,04,09,11,18.30
2016,08,04,09,12,18.30
2016,08,04,09,13,18.20
2016,08,04,09,14,18.20
2016,08,04,09,15,18.20
2016,08,04,09,16,18.10
2016,08,04,09,17,18.10
2016,08,04,09,18,18.10
2016,08,04,09,19,18.10
2016,08,04,09,20,18.10
2016,08,04,09,21,18.20
2016,08,04,09,22,18.20
2016,08,04,09,23,18.20
2016,08,04,09,24,18.20
2016,08,04,09,25,18.20
2016,08,04,09,26,18.10
2016,08,04,09,27,18.10
2016,08,04,09,28,18.10
2016,08,04,09,29,18.00
2016,08,04,09,30,18.00
2016,08,04,09,31,17.90
2016,08,04,09,32,17.90
2016,08,04,09,33,17.90
2016,08,04,09,34,17.90
2016,08,04,09,35,17.90
2016,08,04,09,36,17.90
2016,08,04,09,37,17.90
2016,08,04,09,38,18.00
2016,08,04,09,39,18.00
2016,08,04,09,40,18.00
2016,08,04,09,41,18.10
2016,08,04,09,42,18.10
2016,08,04,09,43,18.10
2016,08,04,09,44,18.20
2016,08,04,09,45,18.20
2016,08,04,09,46,18.20
2016,08,04,09,47,18.20
2016,08,04,09,48,18.20
2016,08,04,09,49,18.20
2016,08,04,09,50,18.20
2016,08,04,09,51,18.30
2016,08,04,09,52,18.30
2016,08,04,09,53,18.30
2016,08,04,09,54,18.30
2016,08,04,09,55,18.30
2016,08,04,09,56,18.30
2016,08,04,09,57,18.30
2016,08,04,09,58,18.40
2016,08,04,09,59,18.40
2016,08,04,10,00,18.40
2016,08,04,10,01,18.40
2016,08,04,10,02,18.40
2016,08,04,10,03,18.40
2016,08,04,10,04,18.40
2016,08,04,10,05,18.50
2016,08,04,10,06,18.50
2016,08,04,10,07,18.50
2016,08,04,10,08,18.50
2016,08,04,10,09,18.50
2016,08,04,10,10,18.50
2016,08,04,10,11,18.50
2016,08,04,10,12,18.50
2016,08,04,10,13,18.50
2016,08,04,10,14,18.50
2016,08,04,10,15,18.50
2016,08,04,10,16,18.60
2016,08,04,10,17,18.60
2016,08,04,10,18,18.60
2016,08,04,10,19,18.60
2016,08,04,10,20,18.60
2016,08,04,10,21,18.60
2016,08,04,10,22,18.60
2016,08,04,10,23,18.70
2016,08,04,10,24,18.60
2016,08,04,10,25,18.70
2016,08,04,10,26,18.70
2016,08,04,10,27,18.70
2016,08,04,10,28,18.70
2016,08,04,10,29,18.70
2016,08,04,10,30,18.70
2016,08,04,10,31,18.70
2016,08,04,10,32,18.70
2016,08,04,10,33,18.70
2016,08,04,10,34,18.70
2016,08,04,10,35,18.70
2016,08,04,10,36,18.70
2016,08,04,10,37,18.70
2016,08,04,10,38,18.70
2016,08,04,10,39,18.70
2016,08,04,10,40,18.70
2016,08,04,10,41,18.70
2016,08,04,10,42,18.70
2016,08,04,10,43,18.70
2016,08,04,10,44,18.70
2016,08,04,10,45,18.70
2016,08,04,10,46,18.70
2016,08,04,10,47,18.70
2016,08,04,10,48,18.70
2016,08,04,10,49,18.60
2016,08,04,10,50,18.60
2016,08,04,10,51,18.60
2016,08,04,10,52,18.70
2016,08,04,10,53,18.70
2016,08,04,10,54,18.70
2016,08,04,10,55,18.70
2016,08,04,10,56,18.70
2016,08,04,10,57,18.80
2016,08,04,10,58,18.80
2016,08,04,10,59,18.80
2016,08,04,11,00,18.80
2016,08,04,11,01,18.80
2016,08,04,11,02,18.80
2016,08,04,11,03,18.80
2016,08,04,11,04,18.80
2016,08,04,11,05,18.70
2016,08,04,11,06,18.70
2016,08,04,11,07,18.60
2016,08,04,11,08,18.60
2016,08,04,11,09,18.60
2016,08,04,11,10,18.60
2016,08,04,11,11,18.60
2016,08,04,11,12,18.60
2016,08,04,11,13,18.60
2016,08,04,11,14,18.50
2016,08,04,11,15,18.60
2016,08,04,11,16,18.60
2016,08,04,11,17,18.60
2016,08,04,11,18,18.60
2016,08,04,11,19,18.60
2016,08,04,11,20,18.60
2016,08,04,11,21,18.60
2016,08,04,11,22,18.60
2016,08,04,11,23,18.60
2016,08,04,11,24,18.60
2016,08,04,11,25,18.50
2016,08,04,11,26,18.60
2016,08,04,11,27,18.60
2016,08,04,11,28,18.60
2016,08,04,11,29,18.60
2016,08,04,11,30,18.60
2016,08,04,11,31,18.60
2016,08,04,11,32,18.60
2016,08,04,11,33,18.60
2016,08,04,11,34,18.60
2016,08,04,11,35,18.60
2016,08,04,11,36,18.60
2016,08,04,11,37,18.60
2016,08,04,11,38,18.60
2016,08,04,11,39,18.60
2016,08,04,11,40,18.70
2016,08,04,11,41,18.70
2016,08,04,11,42,18.70
2016,08,04,11,43,18.70
2016,08,04,11,44,18.70
2016,08,04,11,45,18.70
2016,08,04,11,46,18.70
2016,08,04,11,47,18.80
2016,08,04,11,48,18.80
2016,08,04,11,49,18.80
2016,08,04,11,50,18.80
2016,08,04,11,51,18.80
2016,08,04,11,52,18.80
2016,08,04,11,53,18.80
2016,08,04,11,54,18.80
2016,08,04,11,55,18.80
2016,08,04,11,56,18.80
2016,08,04,11,57,18.80
2016,08,04,11,58,18.80
2016,08,04,11,59,18.80
2016,08,04,12,00,18.80
2016,08,04,12,01,18.90
2016,08,04,12,02,18.90
2016,08,04,12,03,18.80
2016,08,04,12,04,18.80
2016,08,04,12,05,18.80
2016,08,04,12,06,18.80
2016,08,04,12,07,18.80
2016,08,04,12,08,18.80
2016,08,04,12,09,18.80
2016,08,04,12,10,18.80
2016,08,04,12,11,18.80
2016,08,04,12,12,18.80
2016,08,04,12,13,18.80
2016,08,04,12,14,18.80
2016,08,04,12,15,18.80
2016,08,04,12,16,18.70
2016,08,04,12,17,18.70
2016,08,04,12,18,18.70
2016,08,04,12,19,18.70
2016,08,04,12,20,18.70
2016,08,04,12,21,18.70
2016,08,04,12,22,18.70
2016,08,04,12,23,18.70
2016,08,04,12,24,18.70
2016,08,04,12,25,18.70
2016,08,04,12,26,18.70
2016,08,04,12,27,18.80
2016,08,04,12,28,18.80
2016,08,04,12,29,18.80
2016,08,04,12,30,18.80
2016,08,04,12,31,18.90
2016,08,04,12,32,18.90
2016,08,04,12,33,18.90
2016,08,04,12,34,19.00
2016,08,04,12,35,19.00
2016,08,04,12,36,19.10
2016,08,04,12,37,19.10
2016,08,04,12,38,19.20
2016,08,04,12,39,19.20
2016,08,04,12,40,19.20
2016,08,04,12,41,19.30
2016,08,04,12,42,19.30
2016,08,04,12,43,19.30
2016,08,04,12,44,19.30
2016,08,04,12,45,19.30
2016,08,04,12,46,19.30
2016,08,04,12,47,19.30
2016,08,04,12,48,19.30
2016,08,04,12,49,19.30
2016,08,04,12,50,19.30
2016,08,04,12,51,19.30
2016,08,04,12,52,19.40
2016,08,04,12,53,19.40
2016,08,04,12,54,19.40
2016,08,04,12,55,19.40
2016,08,04,12,56,19.40
2016,08,04,12,57,19.50
2016,08,04,12,58,19.50
2016,08,04,12,59,19.50
2016,08,04,13,00,19.60
2016,08,04,13,01,19.60
2016,08,04,13,02,19.60
2016,08,04,13,03,19.60
2016,08,04,13,04,19.60
2016,08,04,13,05,19.60
2016,08,04,13,06,19.60
2016,08,04,13,07,19.60
2016,08,04,13,08,19.60
2016,08,04,13,09,19.60
2016,08,04,13,10,19.60
2016,08,04,13,11,19.60
2016,08,04,13,12,19.60
2016,08,04,13,13,19.60
2016,08,04,13,14,19.60
2016,08,04,13,15,19.60
2016,08,04,13,16,19.70
2016,08,04,13,17,19.70
2016,08,04,13,18,19.70
2016,08,04,13,19,19.70
2016,08,04,13,20,19.70
2016,08,04,13,21,19.70
2016,08,04,13,22,19.70
2016,08,04,13,23,19.70
2016,08,04,13,24,19.70
2016,08,04,13,25,19.70
2016,08,04,13,26,19.80
2016,08,04,13,27,19.80
2016,08,04,13,28,19.80
2016,08,04,13,29,19.80
2016,08,04,13,30,19.90
2016,08,04,13,31,19.90
2016,08,04,13,32,20.00
2016,08,04,13,33,20.00
2016,08,04,13,34,20.10
2016,08,04,13,35,20.10
2016,08,04,13,36,20.10
2016,08,04,13,37,20.20
2016,08,04,13,38,20.20
2016,08,04,13,39,20.20
2016,08,04,13,40,20.20
2016,08,04,13,41,20.20
2016,08,04,13,42,20.20
2016,08,04,13,43,20.30
2016,08,04,13,44,20.30
2016,08,04,13,45,20.30
2016,08,04,13,46,20.30
2016,08,04,13,47,20.30
2016,08,04,13,48,20.30
2016,08,04,13,49,20.30
2016,08,04,13,50,20.40
2016,08,04,13,51,20.40
2016,08,04,13,52,20.40
2016,08,04,13,53,20.40
2016,08,04,13,54,20.40
2016,08,04,13,55,20.40
2016,08,04,13,56,20.40
2016,08,04,13,57,20.40
2016,08,04,13,58,20.40
2016,08,04,13,59,20.40
2016,08,04,14,00,20.50
2016,08,04,14,01,20.50
2016,08,04,14,02,20.50
2016,08,04,14,03,20.50
2016,08,04,14,04,20.40
2016,08,04,14,05,20.40
2016,08,04,14,06,20.40
2016,08,04,14,07,20.40
2016,08,04,14,08,20.40
2016,08,04,14,09,20.40
2016,08,04,14,10,20.40
2016,08,04,14,11,20.40
2016,08,04,14,12,20.40
2016,08,04,14,13,20.40
2016,08,04,14,14,20.40
2016,08,04,14,15,20.40
2016,08,04,14,16,20.40
2016,08,04,14,17,20.40
2016,08,04,14,18,20.40
2016,08,04,14,19,20.50
2016,08,04,14,20,20.50
2016,08,04,14,21,20.40
2016,08,04,14,22,20.30
2016,08,04,14,23,20.20
2016,08,04,14,24,20.10
2016,08,04,14,25,20.00
2016,08,04,14,26,19.80
2016,08,04,14,27,19.80
2016,08,04,14,28,19.70
2016,08,04,14,29,19.60
2016,08,04,14,30,19.60
2016,08,04,14,31,19.60
2016,08,04,14,32,19.60
2016,08,04,14,33,19.60
2016,08,04,14,34,19.60
2016,08,04,14,35,19.60
2016,08,04,14,36,19.60
2016,08,04,14,37,19.70
2016,08,04,14,38,19.70
2016,08,04,14,39,19.80
2016,08,04,14,40,19.80
2016,08,04,14,41,19.80
2016,08,04,14,42,19.80
2016,08,04,14,43,19.90
2016,08,04,14,44,19.90
2016,08,04,14,45,19.90
2016,08,04,14,46,20.00
2016,08,04,14,47,20.00
2016,08,04,14,48,20.10
2016,08,04,14,49,20.10
2016,08,04,14,50,20.10
2016,08,04,14,51,20.10
2016,08,04,14,52,20.10
2016,08,04,14,53,20.10
2016,08,04,14,54,20.20
2016,08,04,14,55,20.30
2016,08,04,14,56,20.40
2016,08,04,14,57,20.50
2016,08,04,14,58,20.60
2016,08,04,14,59,20.70
2016,08,04,15,00,20.70
2016,08,04,15,01,20.80
2016,08,04,15,02,20.90
2016,08,04,15,03,20.90
2016,08,04,15,04,20.90
2016,08,04,15,05,20.90
2016,08,04,15,06,20.90
2016,08,04,15,07,20.90
2016,08,04,15,08,20.90
2016,08,04,15,09,20.90
2016,08,04,15,10,20.90
2016,08,04,15,11,20.90
2016,08,04,15,12,21.00
2016,08,04,15,13,21.00
2016,08,04,15,14,21.00
2016,08,04,15,15,21.10
2016,08,04,15,16,21.10
2016,08,04,15,17,21.10
2016,08,04,15,18,21.20
2016,08,04,15,19,21.20
2016,08,04,15,20,21.20
2016,08,04,15,21,21.20
2016,08,04,15,22,21.30
2016,08,04,15,23,21.30
2016,08,04,15,24,21.30
2016,08,04,15,25,21.30
2016,08,04,15,26,21.40
2016,08,04,15,27,21.40
2016,08,04,15,28,21.40
2016,08,04,15,29,21.40
2016,08,04,15,30,21.50
2016,08,04,15,31,21.50
2016,08,04,15,32,21.50
2016,08,04,15,33,21.50
2016,08,04,15,34,21.50
2016,08,04,15,35,21.50
2016,08,04,15,36,21.50
2016,08,04,15,37,21.50
2016,08,04,15,38,21.50
2016,08,04,15,39,21.50
2016,08,04,15,40,21.50
2016,08,04,15,41,21.50
2016,08,04,15,42,21.50
2016,08,04,15,43,21.50
2016,08,04,15,44,21.50
2016,08,04,15,45,21.50
2016,08,04,15,46,21.50
2016,08,04,15,47,21.60
2016,08,04,15,48,21.60
2016,08,04,15,49,21.60
2016,08,04,15,50,21.60
2016,08,04,15,51,21.70
2016,08,04,15,52,21.70
2016,08,04,15,53,21.70
2016,08,04,15,54,21.70
2016,08,04,15,55,21.70
2016,08,04,15,56,21.80
2016,08,04,15,57,21.80
2016,08,04,15,58,21.80
2016,08,04,15,59,21.80
2016,08,04,16,00,21.90
2016,08,04,16,01,21.90
2016,08,04,16,02,21.90
2016,08,04,16,03,22.00
2016,08,04,16,04,22.00
2016,08,04,16,05,22.10
2016,08,04,16,06,22.10
2016,08,04,16,07,22.20
2016,08,04,16,08,22.20
2016,08,04,16,09,22.20
2016,08,04,16,10,22.20
2016,08,04,16,11,22.20
2016,08,04,16,12,22.20
2016,08,04,16,13,22.20
2016,08,04,16,14,22.20
2016,08,04,16,15,22.20
2016,08,04,16,16,22.30
2016,08,04,16,17,22.30
2016,08,04,16,18,22.30
2016,08,04,16,19,22.30
2016,08,04,16,20,22.30
2016,08,04,16,21,22.30
2016,08,04,16,22,22.20
2016,08,04,16,23,22.20
2016,08,04,16,24,22.10
2016,08,04,16,25,22.10
2016,08,04,16,26,22.00
2016,08,04,16,27,21.90
2016,08,04,16,28,21.90
2016,08,04,16,29,21.90
2016,08,04,16,30,21.90
2016,08,04,16,31,21.90
2016,08,04,16,32,21.90
2016,08,04,16,33,22.00
2016,08,04,16,34,22.00
2016,08,04,16,35,22.00
2016,08,04,16,36,22.00
2016,08,04,16,37,22.00
2016,08,04,16,38,21.90
2016,08,04,16,39,21.90
2016,08,04,16,40,21.90
2016,08,04,16,41,21.90
2016,08,04,16,42,22.00
2016,08,04,16,43,22.00
2016,08,04,16,44,22.00
2016,08,04,16,45,22.10
2016,08,04,16,46,22.10
2016,08,04,16,47,22.10
2016,08,04,16,48,22.20
2016,08,04,16,49,22.20
2016,08,04,16,50,22.20
2016,08,04,16,51,22.30
2016,08,04,16,52,22.30
2016,08,04,16,53,22.40
2016,08,04,16,54,22.40
2016,08,04,16,55,22.50
2016,08,04,16,56,22.50
2016,08,04,16,57,22.60
2016,08,04,16,58,22.60
2016,08,04,16,59,22.60
2016,08,04,17,00,22.70
2016,08,04,17,01,22.70
2016,08,04,17,02,22.70
2016,08,04,17,03,22.70
2016,08,04,17,04,22.80
2016,08,04,17,05,22.80
2016,08,04,17,06,22.80
2016,08,04,17,07,22.80
2016,08,04,17,08,22.80
2016,08,04,17,09,22.90
2016,08,04,17,10,22.90
2016,08,04,17,11,22.90
2016,08,04,17,12,22.90
2016,08,04,17,13,22.90
2016,08,04,17,14,23.00
2016,08,04,17,15,23.00
2016,08,04,17,16,23.00
2016,08,04,17,17,23.00
2016,08,04,17,18,22.90
2016,08,04,17,19,22.90
2016,08,04,17,20,22.80
2016,08,04,17,21,22.70
2016,08,04,17,22,22.70
2016,08,04,17,23,22.70
2016,08,04,17,24,22.70
2016,08,04,17,25,22.70
2016,08,04,17,26,22.70
2016,08,04,17,27,22.80
2016,08,04,17,28,22.80
2016,08,04,17,29,22.80
2016,08,04,17,30,22.80
2016,08,04,17,31,22.90
2016,08,04,17,32,22.90
2016,08,04,17,33,23.00
2016,08,04,17,34,23.00
2016,08,04,17,35,23.00
2016,08,04,17,36,23.10
2016,08,04,17,37,23.10
2016,08,04,17,38,23.10
2016,08,04,17,39,23.20
2016,08,04,17,40,23.20
2016,08,04,17,41,23.20
2016,08,04,17,42,23.20
2016,08,04,17,43,23.20
2016,08,04,17,44,23.10
2016,08,04,17,45,23.10
2016,08,04,17,46,23.00
2016,08,04,17,47,22.90
2016,08,04,17,48,22.80
2016,08,04,17,49,22.80
2016,08,04,17,50,22.70
2016,08,04,17,51,22.50
2016,08,04,17,52,22.30
2016,08,04,17,53,22.20
2016,08,04,17,54,22.10
2016,08,04,17,55,22.00
2016,08,04,17,56,21.90
2016,08,04,17,57,21.90
2016,08,04,17,58,21.90
2016,08,04,17,59,21.90
2016,08,04,18,00,22.00
2016,08,04,18,01,22.00
2016,08,04,18,02,22.10
2016,08,04,18,03,22.10
2016,08,04,18,04,22.20
2016,08,04,18,05,22.20
2016,08,04,18,06,22.30
2016,08,04,18,07,22.30
2016,08,04,18,08,22.30
2016,08,04,18,09,22.30
2016,08,04,18,10,22.30
2016,08,04,18,11,22.30
2016,08,04,18,12,22.40
2016,08,04,18,13,22.40
2016,08,04,18,14,22.40
2016,08,04,18,15,22.40
2016,08,04,18,16,22.40
2016,08,04,18,17,22.40
2016,08,04,18,18,22.50
2016,08,04,18,19,22.50
2016,08,04,18,20,22.50
2016,08,04,18,21,22.50
2016,08,04,18,22,22.50
2016,08,04,18,23,22.50
2016,08,04,18,24,22.40
2016,08,04,18,25,22.40
2016,08,04,18,26,22.30
2016,08,04,18,27,22.20
2016,08,04,18,28,22.10
2016,08,04,18,29,22.10
2016,08,04,18,30,22.00
2016,08,04,18,31,22.00
2016,08,04,18,32,21.90
2016,08,04,18,33,21.90
2016,08,04,18,34,21.90
2016,08,04,18,35,21.90
2016,08,04,18,36,21.90
2016,08,04,18,37,21.90
2016,08,04,18,38,21.80
2016,08,04,18,39,21.80
2016,08,04,18,40,21.80
2016,08,04,18,41,21.90
2016,08,04,18,42,21.90
2016,08,04,18,43,21.90
2016,08,04,18,44,21.90
2016,08,04,18,45,21.90
2016,08,04,18,46,21.90
2016,08,04,18,47,21.90
2016,08,04,18,48,21.90
2016,08,04,18,49,21.90
2016,08,04,18,50,22.00
2016,08,04,18,51,22.70
2016,08,04,18,52,22.70
2016,08,04,18,53,22.60
2016,08,04,18,54,22.60
2016,08,04,18,55,22.60
2016,08,04,18,56,22.60
2016,08,04,18,57,22.60
2016,08,04,18,58,22.60
2016,08,04,18,59,22.70
2016,08,04,19,00,22.70
2016,08,04,19,01,22.70
2016,08,04,19,02,22.70
2016,08,04,19,03,22.80
2016,08,04,19,04,22.80
2016,08,04,19,05,22.80
2016,08,04,19,06,22.80
2016,08,04,19,07,22.80
2016,08,04,19,08,22.70
2016,08,04,19,09,22.70
2016,08,04,19,10,22.70
2016,08,04,19,11,22.70
2016,08,04,19,12,22.70
2016,08,04,19,13,22.70
2016,08,04,19,14,22.70
2016,08,04,19,15,22.70
2016,08,04,19,16,22.70
2016,08,04,19,17,22.70
2016,08,04,19,18,22.70
2016,08,04,19,19,22.70
2016,08,04,19,20,22.70
2016,08,04,19,21,22.70
2016,08,04,19,22,22.70
2016,08,04,19,23,22.70
2016,08,04,19,24,22.70
2016,08,04,19,25,22.70
2016,08,04,19,26,22.70
2016,08,04,19,27,22.80
2016,08,04,19,28,22.80
2016,08,04,19,29,22.80
2016,08,04,19,30,22.80
2016,08,04,19,31,22.70
2016,08,04,19,32,22.70
2016,08,04,19,33,22.70
2016,08,04,19,34,22.70
2016,08,04,19,35,22.70
2016,08,04,19,36,22.70
2016,08,04,19,37,22.70
2016,08,04,19,38,22.60
2016,08,04,19,39,22.60
2016,08,04,19,40,22.60
2016,08,04,19,41,22.50
2016,08,04,19,42,22.50
2016,08,04,19,43,22.50
2016,08,04,19,44,22.40
2016,08,04,19,45,22.40
2016,08,04,19,46,22.40
2016,08,04,19,47,22.40
2016,08,04,19,48,22.40
2016,08,04,19,49,22.30
2016,08,04,19,50,22.30
2016,08,04,19,51,22.30
2016,08,04,19,52,22.30
2016,08,04,19,53,22.30
2016,08,04,19,54,22.30
2016,08,04,19,55,22.20
2016,08,04,19,56,22.20
2016,08,04,19,57,22.10
2016,08,04,19,58,22.10
2016,08,04,19,59,22.10
2016,08,04,20,00,22.10
2016,08,04,20,01,22.10
2016,08,04,20,02,22.00
2016,08,04,20,03,22.00
2016,08,04,20,04,22.00
2016,08,04,20,05,21.90
2016,08,04,20,06,21.80
2016,08,04,20,07,21.80
2016,08,04,20,08,21.70
2016,08,04,20,09,21.60
2016,08,04,20,10,21.60
2016,08,04,20,11,21.50
2016,08,04,20,12,21.40
2016,08,04,20,13,21.40
2016,08,04,20,14,21.30
2016,08,04,20,15,21.30
2016,08,04,20,16,21.20
2016,08,04,20,17,21.20
2016,08,04,20,18,21.10
2016,08,04,20,19,21.10
2016,08,04,20,20,21.10
2016,08,04,20,21,21.00
2016,08,04,20,22,21.00
2016,08,04,20,23,20.90
2016,08,04,20,24,20.90
2016,08,04,20,25,20.80
2016,08,04,20,26,20.80
2016,08,04,20,27,20.80
2016,08,04,20,28,20.70
2016,08,04,20,29,20.70
2016,08,04,20,30,20.60
2016,08,04,20,31,20.60
2016,08,04,20,32,20.50
2016,08,04,20,33,20.50
2016,08,04,20,34,20.40
2016,08,04,20,35,20.40
2016,08,04,20,36,20.40
2016,08,04,20,37,20.40
2016,08,04,20,38,20.30
2016,08,04,20,39,20.30
2016,08,04,20,40,20.30
2016,08,04,20,41,20.30
2016,08,04,20,42,20.20
2016,08,04,20,43,20.20
2016,08,04,20,44,20.20
2016,08,04,20,45,20.20
2016,08,04,20,46,20.10
2016,08,04,20,47,20.10
2016,08,04,20,48,20.10
2016,08,04,20,49,20.10
2016,08,04,20,50,20.10
2016,08,04,20,51,20.00
2016,08,04,20,52,20.00
2016,08,04,20,53,20.00
2016,08,04,20,54,20.00
2016,08,04,20,55,19.90
2016,08,04,20,56,19.90
2016,08,04,20,57,19.90
2016,08,04,20,58,19.90
2016,08,04,20,59,19.80
2016,08,04,21,00,19.80
2016,08,04,21,01,19.80
2016,08,04,21,02,19.70
2016,08,04,21,03,19.70
2016,08,04,21,04,19.70
2016,08,04,21,05,19.60
2016,08,04,21,06,19.60
2016,08,04,21,07,19.50
2016,08,04,21,08,19.50
2016,08,04,21,09,19.50
2016,08,04,21,10,19.40
2016,08,04,21,11,19.40
2016,08,04,21,12,19.40
2016,08,04,21,13,19.30
2016,08,04,21,14,19.30
2016,08,04,21,15,19.20
2016,08,04,21,16,19.20
2016,08,04,21,17,19.20
2016,08,04,21,18,19.20
2016,08,04,21,19,19.20
2016,08,04,21,20,19.10
2016,08,04,21,21,19.10
2016,08,04,21,22,19.10
2016,08,04,21,23,19.00